When you browse on this site, cookies collect data to enhance your experience and personalize the content and advertising you see.
Visit our Privacy Policy to learn more. By continuing to use the site, you agree to this use of cookies and data.
  • En España
  • Lista de países
  • Para 7 días
  • Temperatura del agua
  • El tiempo en el mapa
  • Informadores
  • user-avatar
    Iniciar sesión

    Tiempo cada hora Dorchester

    Hoy, 5 Diciembre, Jueves

    Tiempo Temperatura Precipitaciones Viento Presión Humedad
    00:00 +2°C° 0 mm 2 mps 761 mmHg 93%
    01:00 +2°C° 0 mm 2 mps 760 mmHg 93%
    02:00 +2°C° 0 mm 2 mps 760 mmHg 94%
    03:00 +2°C° 0 mm 2 mps 760 mmHg 94%
    04:00 +2°C° 0 mm 2 mps 760 mmHg 94%
    05:00 +3°C° 0 mm 2 mps 760 mmHg 95%
    06:00 +3°C° 0 mm 2 mps 761 mmHg 95%
    07:00 +2°C° 0 mm 3 mps 760 mmHg 95%
    08:00 +2°C° 0 mm 3 mps 760 mmHg 96%
    09:00 +2°C° 0 mm 3 mps 760 mmHg 96%
    10:00 +4°C° 0 mm 4 mps 760 mmHg 91%
    11:00 +5°C° 0 mm 5 mps 760 mmHg 87%
    12:00 +6°C° 0 mm 5 mps 760 mmHg 82%
    13:00 +5°C° 0 mm 6 mps 759 mmHg 82%
    14:00 +5°C° 0 mm 6 mps 758 mmHg 82%
    15:00 +5°C° 0 mm 6 mps 757 mmHg 82%
    16:00 +5°C° 0 mm 6 mps 757 mmHg 82%
    17:00 +5°C° 0 mm 7 mps 756 mmHg 82%
    18:00 +5°C° 0 mm 7 mps 756 mmHg 82%
    19:00 +6°C° 0 mm 8 mps 756 mmHg 82%
    20:00 +6°C° 0 mm 8 mps 755 mmHg 83%
    21:00 +6°C° 0 mm 8 mps 755 mmHg 83%
    22:00 +7°C° 0 mm 8 mps 754 mmHg 85%
    23:00 +7°C° 0 mm 8 mps 754 mmHg 87%

    Mañana, 6 Diciembre, Viernes

    Tiempo Temperatura Precipitaciones Viento Presión Humedad
    00:00 +9°C° 0 mm 8 mps 754 mmHg 89%
    01:00 +9°C° 0.1 mm 8 mps 753 mmHg 89%
    02:00 +9°C° 0.1 mm 8 mps 752 mmHg 90%
    03:00 +9°C° 0.1 mm 8 mps 751 mmHg 90%
    04:00 +10°C° 0.4 mm 8 mps 751 mmHg 91%
    05:00 +10°C° 0.4 mm 8 mps 751 mmHg 91%
    06:00 +10°C° 0.4 mm 8 mps 751 mmHg 92%
    07:00 +10°C° 0.2 mm 8 mps 750 mmHg 92%
    08:00 +10°C° 0.2 mm 8 mps 750 mmHg 92%
    09:00 +11°C° 0.2 mm 8 mps 749 mmHg 92%
    10:00 +11°C° 0.1 mm 8 mps 749 mmHg 90%
    11:00 +11°C° 0.1 mm 8 mps 748 mmHg 89%
    12:00 +11°C° 0.1 mm 8 mps 748 mmHg 88%
    13:00 +11°C° 0.4 mm 8 mps 747 mmHg 85%
    14:00 +11°C° 0.4 mm 9 mps 747 mmHg 82%
    15:00 +9°C° 0.4 mm 10 mps 746 mmHg 79%
    16:00 +8°C° 0.1 mm 9 mps 747 mmHg 81%
    17:00 +8°C° 0.1 mm 7 mps 748 mmHg 83%
    18:00 +7°C° 0.1 mm 6 mps 749 mmHg 85%
    19:00 +7°C° 0 mm 6 mps 750 mmHg 86%
    20:00 +7°C° 0 mm 6 mps 750 mmHg 87%
    21:00 +6°C° 0 mm 5 mps 751 mmHg 88%
    22:00 +6°C° 0 mm 5 mps 752 mmHg 89%
    23:00 +6°C° 0 mm 5 mps 752 mmHg 90%

    Pasado mañana, 7 Diciembre, Sábado

    Tiempo Temperatura Precipitaciones Viento Presión Humedad
    00:00 +6°C° 0 mm 5 mps 753 mmHg 91%
    01:00 +6°C° 0 mm 5 mps 753 mmHg 91%
    02:00 +5°C° 0 mm 5 mps 753 mmHg 91%
    03:00 +5°C° 0 mm 5 mps 754 mmHg 91%
    04:00 +5°C° 0 mm 5 mps 754 mmHg 91%
    05:00 +5°C° 0 mm 5 mps 754 mmHg 91%
    06:00 +5°C° 0 mm 4 mps 755 mmHg 92%
    07:00 +5°C° 0 mm 4 mps 755 mmHg 91%
    08:00 +5°C° 0 mm 4 mps 755 mmHg 91%
    09:00 +5°C° 0 mm 4 mps 756 mmHg 91%
    10:00 +6°C° 0 mm 4 mps 756 mmHg 88%
    11:00 +7°C° 0 mm 5 mps 756 mmHg 85%
    12:00 +8°C° 0 mm 5 mps 756 mmHg 83%
    13:00 +8°C° 0 mm 5 mps 755 mmHg 85%
    14:00 +8°C° 0 mm 4 mps 755 mmHg 87%
    15:00 +7°C° 0 mm 4 mps 755 mmHg 89%
    16:00 +7°C° 0 mm 4 mps 754 mmHg 91%
    17:00 +7°C° 0 mm 5 mps 754 mmHg 92%
    18:00 +6°C° 0 mm 5 mps 754 mmHg 93%
    19:00 +7°C° 0 mm 6 mps 753 mmHg 93%
    20:00 +8°C° 0 mm 7 mps 752 mmHg 92%
    21:00 +7°C° 0 mm 8 mps 751 mmHg 91%
    22:00 +8°C° 0.8 mm 9 mps 750 mmHg 91%
    23:00 +8°C° 0.8 mm 10 mps 749 mmHg 92%

    8 Diciembre, Domingo

    Tiempo Temperatura Precipitaciones Viento Presión Humedad
    00:00 +8°C° 0.8 mm 11 mps 747 mmHg 92%
    01:00 +9°C° 0.8 mm 10 mps 747 mmHg 92%
    02:00 +11°C° 0.8 mm 9 mps 746 mmHg 91%
    03:00 +12°C° 0.8 mm 8 mps 746 mmHg 91%
    04:00 +10°C° 0 mm 8 mps 746 mmHg 87%
    05:00 +9°C° 0 mm 7 mps 747 mmHg 84%
    06:00 +6°C° 0 mm 7 mps 747 mmHg 80%
    07:00 +5°C° 0 mm 7 mps 748 mmHg 81%
    08:00 +5°C° 0 mm 6 mps 748 mmHg 82%
    09:00 +5°C° 0 mm 6 mps 748 mmHg 82%
    10:00 +5°C° 0.3 mm 7 mps 748 mmHg 82%
    11:00 +6°C° 0.3 mm 9 mps 747 mmHg 82%
    12:00 +7°C° 0.3 mm 10 mps 747 mmHg 82%
    13:00 +6°C° 0.7 mm 10 mps 747 mmHg 80%
    14:00 +6°C° 0.7 mm 9 mps 746 mmHg 78%
    15:00 +5°C° 0.7 mm 9 mps 746 mmHg 76%
    16:00 +5°C° 0 mm 9 mps 746 mmHg 77%
    17:00 +5°C° 0 mm 9 mps 745 mmHg 78%
    18:00 +4°C° 0 mm 8 mps 745 mmHg 79%
    19:00 +3°C° 0 mm 9 mps 745 mmHg 79%
    20:00 +4°C° 0 mm 11 mps 745 mmHg 80%
    21:00 +4°C° 0 mm 12 mps 744 mmHg 80%
    22:00 +4°C° 0.1 mm 12 mps 744 mmHg 80%
    23:00 +4°C° 0.1 mm 12 mps 743 mmHg 80%

    9 Diciembre, Lunes

    Tiempo Temperatura Precipitaciones Viento Presión Humedad
    00:00 +4°C° 0.1 mm 13 mps 743 mmHg 80%
    01:00 +4°C° 0.3 mm 13 mps 743 mmHg 78%
    02:00 +5°C° 0.3 mm 13 mps 742 mmHg 76%
    03:00 +5°C° 0.3 mm 13 mps 742 mmHg 74%
    04:00 +5°C° 0.1 mm 12 mps 743 mmHg 73%
    05:00 +5°C° 0.1 mm 12 mps 745 mmHg 73%
    06:00 +5°C° 0.1 mm 12 mps 746 mmHg 72%
    07:00 +6°C° 0 mm 11 mps 748 mmHg 73%
    08:00 +6°C° 0 mm 10 mps 750 mmHg 73%
    09:00 +6°C° 0 mm 9 mps 751 mmHg 74%
    10:00 +6°C° 0 mm 9 mps 753 mmHg 73%
    11:00 +7°C° 0 mm 9 mps 754 mmHg 71%
    12:00 +7°C° 0 mm 8 mps 755 mmHg 70%
    13:00 +8°C° 0 mm 7 mps 756 mmHg 73%
    14:00 +7°C° 0 mm 6 mps 757 mmHg 75%
    15:00 +7°C° 0 mm 5 mps 757 mmHg 78%
    16:00 +6°C° 0 mm 5 mps 758 mmHg 80%
    17:00 +6°C° 0 mm 5 mps 758 mmHg 83%
    18:00 +5°C° 0 mm 4 mps 758 mmHg 86%
    19:00 +5°C° 0 mm 5 mps 758 mmHg 87%
    20:00 +6°C° 0 mm 5 mps 758 mmHg 89%
    21:00 +5°C° 0 mm 6 mps 758 mmHg 90%
    22:00 +5°C° 0 mm 6 mps 757 mmHg 89%
    23:00 +7°C° 0 mm 6 mps 756 mmHg 87%

    10 Diciembre, Martes

    Tiempo Temperatura Precipitaciones Viento Presión Humedad
    00:00 +6°C° 0 mm 7 mps 756 mmHg 85%
    01:00 +6°C° 0.4 mm 7 mps 754 mmHg 87%
    02:00 +7°C° 0.4 mm 8 mps 753 mmHg 89%
    03:00 +8°C° 0.4 mm 9 mps 752 mmHg 91%
    04:00 +8°C° 0.7 mm 9 mps 751 mmHg 91%
    05:00 +8°C° 0.7 mm 9 mps 749 mmHg 92%
    06:00 +10°C° 0.7 mm 9 mps 748 mmHg 92%
    07:00 +10°C° 0.4 mm 9 mps 747 mmHg 91%
    08:00 +11°C° 0.4 mm 9 mps 746 mmHg 91%
    09:00 +12°C° 0.4 mm 9 mps 745 mmHg 90%
    10:00 +12°C° 0.2 mm 10 mps 744 mmHg 90%
    11:00 +12°C° 0.2 mm 10 mps 744 mmHg 89%
    12:00 +12°C° 0.2 mm 11 mps 743 mmHg 88%
    13:00 +12°C° 0.2 mm 11 mps 742 mmHg 87%
    14:00 +13°C° 0.2 mm 11 mps 741 mmHg 86%
    15:00 +13°C° 0.2 mm 12 mps 740 mmHg 85%
    16:00 +12°C° 0.5 mm 12 mps 740 mmHg 84%
    17:00 +10°C° 0.5 mm 12 mps 739 mmHg 84%
    18:00 +10°C° 0.5 mm 12 mps 739 mmHg 84%
    19:00 +9°C° 0.2 mm 12 mps 739 mmHg 83%
    20:00 +8°C° 0.2 mm 12 mps 739 mmHg 82%
    21:00 +7°C° 0.2 mm 12 mps 740 mmHg 80%
    22:00 +6°C° 0.4 mm 11 mps 740 mmHg 81%
    23:00 +5°C° 0.4 mm 10 mps 741 mmHg 82%
    Mostrar más